Rochester, Indiana, United States (46975)
Lat: 41.06N, Lon: 86.22W
Wx Zone: INZ015
Local Info
Past Weather Observations for Today

NOTE: This archive is for the closest National Weather Service station to Rochester. Information may differ from the station used for current weather conditions.

Click here for Long-term Archive

Time Weather Temperature Dewpoint Humidity Pressure Winds Precip Visibility
22:35
Overcast
36°F / 2°C 34°F / 1°C 93% 29.68 in
(1005 mb)
SSW 3.5 mph
(SSW 6 kph)
- 7SM
22:15
Overcast
36°F / 2°C 34°F / 1°C 93% 29.68 in
(1005 mb)
Calm - 10SM
21:55
Overcast
36°F / 2°C 34°F / 1°C 93% 29.68 in
(1005 mb)
SSW 3.5 mph
(SSW 6 kph)
- 10SM
21:35
Overcast
36°F / 2°C 34°F / 1°C 93% 29.68 in
(1005 mb)
SSW 4.6 mph
(SSW 7 kph)
- 10SM
21:15
Overcast
36°F / 2°C 34°F / 1°C 93% 29.68 in
(1005 mb)
SSW 5.8 mph
(SSW 9 kph)
- 10SM
20:55
Overcast
36°F / 2°C 34°F / 1°C 93% 29.68 in
(1005 mb)
SSW 6.9 mph
(SSW 11 kph)
- 10SM
20:35
Overcast
36°F / 2°C 34°F / 1°C 93% 29.68 in
(1005 mb)
SSW 8.1 mph
(SSW 13 kph)
- 10SM
20:15
Overcast
37°F / 3°C 32°F / 0°C 81% 29.68 in
(1005 mb)
SSW 8.1 mph
(SSW 13 kph)
- 10SM
19:55
Overcast
37°F / 3°C 32°F / 0°C 81% 29.68 in
(1005 mb)
SSW 6.9 mph
(SSW 11 kph)
- 10SM
19:35
Overcast
36°F / 2°C 32°F / 0°C 87% 29.68 in
(1005 mb)
SSW 5.8 mph
(SSW 9 kph)
- 10SM
19:15
Overcast
36°F / 2°C 32°F / 0°C 87% 29.68 in
(1005 mb)
SSW 6.9 mph
(SSW 11 kph)
- 10SM
18:55
Overcast
37°F / 3°C 32°F / 0°C 81% 29.68 in
(1005 mb)
SSW 5.8 mph
(SSW 9 kph)
- 10SM
18:35
Overcast
37°F / 3°C 32°F / 0°C 81% 29.68 in
(1005 mb)
SW 4.6 mph
(SW 7 kph)
- 10SM
18:15
Overcast
37°F / 3°C 32°F / 0°C 81% 29.68 in
(1005 mb)
SSW 6.9 mph
(SSW 11 kph)
- 10SM
17:55
Overcast
37°F / 3°C 32°F / 0°C 81% 29.65 in
(1004 mb)
SSW 5.8 mph
(SSW 9 kph)
- 10SM
17:35
Overcast
37°F / 3°C 32°F / 0°C 81% 29.65 in
(1004 mb)
SSW 6.9 mph
(SSW 11 kph)
- 10SM
17:15
Overcast
37°F / 3°C 32°F / 0°C 81% 29.65 in
(1004 mb)
SSW 6.9 mph
(SSW 11 kph)
- 10SM
16:55
Overcast
39°F / 4°C 32°F / 0°C 75% 29.65 in
(1004 mb)
SSW 4.6 mph
(SSW 7 kph)
- 10SM
16:35
Overcast
39°F / 4°C 32°F / 0°C 75% 29.65 in
(1004 mb)
W 8.1 mph
(W 13 kph)
- 10SM
16:15
Mostly Cloudy
41°F / 5°C 32°F / 0°C 70% 29.65 in
(1004 mb)
W 11.5 mph
(W 19 kph)
- 10SM
15:55
Partly Cloudy
39°F / 4°C 32°F / 0°C 75% 29.65 in
(1004 mb)
W 13.8 mph
(W 22 kph)
- 10SM
15:35
Overcast
41°F / 5°C 32°F / 0°C 70% 29.62 in
(1003 mb)
WNW 10.4 mph
(WNW 17 kph)
- 10SM
15:15
Overcast
39°F / 4°C 32°F / 0°C 75% 29.62 in
(1003 mb)
W 10.4 mph
(W 17 kph)
- 10SM
14:55
Overcast
37°F / 3°C 32°F / 0°C 81% 29.65 in
(1004 mb)
W 10.4 mph
(W 17 kph)
- 10SM
14:35
Overcast
37°F / 3°C 30°F / -1°C 75% 29.65 in
(1004 mb)
WNW 15 mph
(WNW 24 kph)
- 10SM
14:15
Mostly Cloudy
37°F / 3°C 30°F / -1°C 75% 29.65 in
(1004 mb)
W 13.8 mph
(W 22 kph)
- 10SM
13:55
Partly Cloudy
37°F / 3°C 32°F / 0°C 81% 29.65 in
(1004 mb)
W 13.8 mph
(W 22 kph)
- 10SM
13:35
Clear
37°F / 3°C 30°F / -1°C 75% 29.65 in
(1004 mb)
W 10.4 mph
(W 17 kph)
- 7SM
13:15
Partly Cloudy
36°F / 2°C 30°F / -1°C 81% 29.65 in
(1004 mb)
SSW 8.1 mph
(SSW 13 kph)
- 7SM
12:55
Overcast
36°F / 2°C 30°F / -1°C 81% 29.65 in
(1004 mb)
SSW 5.8 mph
(SSW 9 kph)
- 7SM
12:35
Overcast
Hazy
34°F / 1°C 30°F / -1°C 87% 29.68 in
(1005 mb)
SSW 10.4 mph
(SSW 17 kph)
- 5SM
12:15
Overcast
Fog And Mist
32°F / 0°C 30°F / -1°C 93% 29.68 in
(1005 mb)
SSW 6.9 mph
(SSW 11 kph)
- 5SM
11:55
Overcast
Fog And Mist
32°F / 0°C 28°F / -2°C 87% 29.68 in
(1005 mb)
SSW 5.8 mph
(SSW 9 kph)
- 5SM
11:35
Overcast
Fog And Mist
32°F / 0°C 28°F / -2°C 87% 29.68 in
(1005 mb)
SSW 5.8 mph
(SSW 9 kph)
- 5SM
11:15
Overcast
Fog And Mist
32°F / 0°C 28°F / -2°C 87% 29.71 in
(1006 mb)
SSW 6.9 mph
(SSW 11 kph)
- 5SM
10:55
Overcast
Fog And Mist
30°F / -1°C 28°F / -2°C 93% 29.71 in
(1006 mb)
SSW 8.1 mph
(SSW 13 kph)
- 5SM
10:35
Overcast
Fog And Mist
30°F / -1°C 28°F / -2°C 93% 29.71 in
(1006 mb)
W 5.8 mph
(W 9 kph)
- 5SM
10:15
Overcast
Fog And Mist
30°F / -1°C 27°F / -3°C 86% 29.71 in
(1006 mb)
SSW 5.8 mph
(SSW 9 kph)
- 5SM
09:55
Overcast
Fog And Mist
28°F / -2°C 27°F / -3°C 93% 29.68 in
(1005 mb)
SSW 5.8 mph
(SSW 9 kph)
- 5SM
09:35
Overcast
Fog And Mist
28°F / -2°C 27°F / -3°C 93% 29.68 in
(1005 mb)
SSW 8.1 mph
(SSW 13 kph)
- 5SM
09:15
Overcast
Fog And Mist
28°F / -2°C 27°F / -3°C 93% 29.68 in
(1005 mb)
SSW 8.1 mph
(SSW 13 kph)
- 5SM
08:55
Mostly Cloudy
Fog And Mist
28°F / -2°C 27°F / -3°C 93% 29.71 in
(1006 mb)
SW 5.8 mph
(SW 9 kph)
- 5SM
08:35
Clear
Fog And Mist
27°F / -3°C 25°F / -4°C 93% 29.71 in
(1006 mb)
SW 4.6 mph
(SW 7 kph)
- 4SM
08:15
Clear
Fog And Mist
27°F / -3°C 23°F / -5°C 86% 29.71 in
(1006 mb)
Calm - 5SM
07:55
Clear
27°F / -3°C 23°F / -5°C 86% 29.71 in
(1006 mb)
SSW 4.6 mph
(SSW 7 kph)
- 7SM
07:35
Clear
27°F / -3°C 23°F / -5°C 86% 29.71 in
(1006 mb)
SSW 5.8 mph
(SSW 9 kph)
- 7SM
07:15
Clear
27°F / -3°C 23°F / -5°C 86% 29.71 in
(1006 mb)
SSW 4.6 mph
(SSW 7 kph)
- 7SM
06:55
Clear
27°F / -3°C 25°F / -4°C 93% 29.71 in
(1006 mb)
SSW 5.8 mph
(SSW 9 kph)
- 7SM
06:35
Clear
27°F / -3°C 23°F / -5°C 86% 29.71 in
(1006 mb)
SSW 5.8 mph
(SSW 9 kph)
- 7SM
06:15
Clear
27°F / -3°C 25°F / -4°C 93% 29.71 in
(1006 mb)
SSW 4.6 mph
(SSW 7 kph)
- 7SM
05:55
Clear
27°F / -3°C 25°F / -4°C 93% 29.71 in
(1006 mb)
SSW 5.8 mph
(SSW 9 kph)
- 7SM
05:35
Clear
27°F / -3°C 25°F / -4°C 93% 29.71 in
(1006 mb)
SSW 6.9 mph
(SSW 11 kph)
- 7SM
05:15
Partly Cloudy
28°F / -2°C 25°F / -4°C 86% 29.71 in
(1006 mb)
SW 5.8 mph
(SW 9 kph)
- 7SM
04:55
Partly Cloudy
28°F / -2°C 25°F / -4°C 86% 29.71 in
(1006 mb)
SSW 6.9 mph
(SSW 11 kph)
- 7SM
04:35
Partly Cloudy
28°F / -2°C 25°F / -4°C 86% 29.74 in
(1007 mb)
SSW 9.2 mph
(SSW 15 kph)
- 7SM
04:15
Clear
28°F / -2°C 25°F / -4°C 86% 29.74 in
(1007 mb)
SSW 8.1 mph
(SSW 13 kph)
- 10SM
03:55
Partly Cloudy
28°F / -2°C 25°F / -4°C 86% 29.74 in
(1007 mb)
SSW 9.2 mph
(SSW 15 kph)
- 10SM
03:35
Partly Cloudy
28°F / -2°C 25°F / -4°C 86% 29.74 in
(1007 mb)
SSW 9.2 mph
(SSW 15 kph)
- 10SM
03:15
Partly Cloudy
28°F / -2°C 25°F / -4°C 86% 29.77 in
(1008 mb)
SSW 9.2 mph
(SSW 15 kph)
- 10SM
02:55
Mostly Cloudy
28°F / -2°C 25°F / -4°C 86% 29.77 in
(1008 mb)
SSW 8.1 mph
(SSW 13 kph)
- 10SM
02:35
Partly Cloudy
28°F / -2°C 25°F / -4°C 86% 29.77 in
(1008 mb)
SSW 10.4 mph
(SSW 17 kph)
- 10SM
02:15
Clear
28°F / -2°C 25°F / -4°C 86% 29.8 in
(1009 mb)
SSW 6.9 mph
(SSW 11 kph)
- 10SM
01:55
Clear
28°F / -2°C 23°F / -5°C 80% 29.8 in
(1009 mb)
SSW 6.9 mph
(SSW 11 kph)
- 10SM
01:35
Clear
28°F / -2°C 25°F / -4°C 86% 29.83 in
(1010 mb)
SSW 9.2 mph
(SSW 15 kph)
- 10SM
01:15
Mostly Cloudy
28°F / -2°C 23°F / -5°C 80% 29.83 in
(1010 mb)
SSW 5.8 mph
(SSW 9 kph)
- 10SM
00:55
Overcast
28°F / -2°C 23°F / -5°C 80% 29.86 in
(1011 mb)
SSW 9.2 mph
(SSW 15 kph)
- 7SM
00:35
Overcast
28°F / -2°C 23°F / -5°C 80% 29.86 in
(1011 mb)
SSW 6.9 mph
(SSW 11 kph)
- 7SM
00:15
Overcast
28°F / -2°C 23°F / -5°C 80% 29.86 in
(1011 mb)
SSW 10.4 mph
(SSW 17 kph)
- 7SM
Time Weather Temperature Dewpoint Humidity Pressure Winds Precip Visibility


Weather for websites

WeatherForYou.com, LLC is not responsible for any damages or problems caused by this service. Current weather conditions are obtained from the closest station including government and personal stations which may have varying degrees of accuracy. Weather forecasts are derived from the NOAA NDFD. Like all things, this site belongs to Jesus Christ... He just trusts me to maintain it. If you have any questions or comments email webmaster@weatherforyou.com

Copyright © 2015, WeatherForYou.com LLC. All rights reserved.